When you browse on this site, cookies collect data to enhance your experience and personalize the content and advertising you see.
Visit our Privacy Policy to learn more. By continuing to use the site, you agree to this use of cookies and data.
  • In Hungary
  • List of Countries
  • For 7 days
  • Water Temperature
  • Satellite Maps
  • Weather Map
  • News
  • Weather Widgets
  • user-avatar
    Login

    Hourly Weather Niefang

    Today, 19 December, Wednesday

    Time Temperature Precipitation Wind Pressure Humidity
    00:00 +23°C° 0.2 mm 1 mps 705 mmHg 95%
    01:00 +22°C° 0.2 mm 1 mps 704 mmHg 96%
    02:00 +22°C° 0 mm 1 mps 704 mmHg 96%
    03:00 +22°C° 0 mm 1 mps 704 mmHg 96%
    04:00 +22°C° 0 mm 1 mps 704 mmHg 97%
    05:00 +22°C° 0 mm 1 mps 704 mmHg 96%
    06:00 +20°C° 0 mm 0 mps 705 mmHg 96%
    07:00 +20°C° 0 mm 0 mps 705 mmHg 96%
    08:00 +22°C° 0 mm 0 mps 705 mmHg 87%
    09:00 +26°C° 0 mm 1 mps 706 mmHg 78%
    10:00 +28°C° 0 mm 1 mps 706 mmHg 68%
    11:00 +30°C° 0 mm 1 mps 706 mmHg 62%
    12:00 +31°C° 0 mm 1 mps 706 mmHg 55%
    13:00 +32°C° 0 mm 1 mps 705 mmHg 49%
    14:00 +32°C° 0 mm 1 mps 704 mmHg 50%
    15:00 +31°C° 0 mm 1 mps 704 mmHg 52%
    16:00 +31°C° 0 mm 1 mps 703 mmHg 53%
    17:00 +29°C° 0.1 mm 1 mps 703 mmHg 63%
    18:00 +27°C° 0.1 mm 1 mps 703 mmHg 74%
    19:00 +25°C° 0.1 mm 2 mps 703 mmHg 84%
    20:00 +24°C° 0.1 mm 1 mps 704 mmHg 88%
    21:00 +24°C° 0.1 mm 1 mps 704 mmHg 91%
    22:00 +23°C° 0.1 mm 1 mps 705 mmHg 95%
    23:00 +23°C° 0 mm 1 mps 705 mmHg 95%

    Tomorrow, 20 December, Thursday

    Time Temperature Precipitation Wind Pressure Humidity
    00:00 +23°C° 0 mm 1 mps 705 mmHg 95%
    01:00 +23°C° 0 mm 1 mps 704 mmHg 95%
    02:00 +23°C° 0 mm 1 mps 704 mmHg 95%
    03:00 +22°C° 0 mm 1 mps 704 mmHg 96%
    04:00 +22°C° 0 mm 1 mps 703 mmHg 96%
    05:00 +22°C° 0 mm 1 mps 704 mmHg 95%
    06:00 +22°C° 0 mm 1 mps 704 mmHg 94%
    07:00 +21°C° 0 mm 0 mps 704 mmHg 93%
    08:00 +22°C° 0 mm 0 mps 705 mmHg 86%
    09:00 +26°C° 0 mm 1 mps 706 mmHg 79%
    10:00 +27°C° 0 mm 1 mps 706 mmHg 72%
    11:00 +28°C° 0.2 mm 1 mps 706 mmHg 67%
    12:00 +30°C° 0.2 mm 1 mps 705 mmHg 61%
    13:00 +31°C° 0.2 mm 1 mps 705 mmHg 56%
    14:00 +30°C° 0.3 mm 1 mps 704 mmHg 58%
    15:00 +30°C° 0.3 mm 1 mps 703 mmHg 60%
    16:00 +29°C° 0.3 mm 2 mps 703 mmHg 62%
    17:00 +27°C° 0.7 mm 2 mps 703 mmHg 71%
    18:00 +26°C° 0.7 mm 2 mps 703 mmHg 80%
    19:00 +24°C° 0.7 mm 1 mps 704 mmHg 89%
    20:00 +23°C° 0.3 mm 1 mps 704 mmHg 91%
    21:00 +23°C° 0.3 mm 1 mps 705 mmHg 93%
    22:00 +23°C° 0.3 mm 1 mps 706 mmHg 94%
    23:00 +22°C° 0.1 mm 1 mps 705 mmHg 95%

    Day after tomorrow, 21 December, Friday

    Time Temperature Precipitation Wind Pressure Humidity
    00:00 +22°C° 0.1 mm 1 mps 705 mmHg 96%
    01:00 +22°C° 0.1 mm 1 mps 704 mmHg 96%
    02:00 +22°C° 0 mm 1 mps 704 mmHg 97%
    03:00 +22°C° 0 mm 1 mps 704 mmHg 97%
    04:00 +21°C° 0 mm 1 mps 703 mmHg 97%
    05:00 +22°C° 0 mm 1 mps 704 mmHg 96%
    06:00 +22°C° 0 mm 1 mps 704 mmHg 95%
    07:00 +20°C° 0 mm 0 mps 705 mmHg 94%
    08:00 +21°C° 0 mm 0 mps 705 mmHg 88%
    09:00 +23°C° 0 mm 0 mps 706 mmHg 83%
    10:00 +24°C° 0 mm 0 mps 706 mmHg 77%
    11:00 +26°C° 0 mm 0 mps 706 mmHg 69%
    12:00 +30°C° 0 mm 1 mps 705 mmHg 61%
    13:00 +32°C° 0 mm 1 mps 705 mmHg 53%
    14:00 +31°C° 0.1 mm 1 mps 704 mmHg 55%
    15:00 +30°C° 0.1 mm 1 mps 703 mmHg 57%
    16:00 +29°C° 0.1 mm 1 mps 702 mmHg 60%
    17:00 +27°C° 0.2 mm 1 mps 703 mmHg 68%
    18:00 +26°C° 0.2 mm 1 mps 703 mmHg 77%
    19:00 +24°C° 0.2 mm 1 mps 703 mmHg 86%
    20:00 +24°C° 0 mm 1 mps 704 mmHg 89%
    21:00 +23°C° 0 mm 1 mps 704 mmHg 91%
    22:00 +23°C° 0 mm 1 mps 705 mmHg 94%
    23:00 +22°C° 0.1 mm 1 mps 704 mmHg 94%

    22 December, Saturday

    Time Temperature Precipitation Wind Pressure Humidity
    00:00 +22°C° 0.1 mm 1 mps 704 mmHg 95%
    01:00 +22°C° 0.1 mm 1 mps 704 mmHg 95%
    02:00 +22°C° 0 mm 1 mps 703 mmHg 95%
    03:00 +21°C° 0 mm 1 mps 703 mmHg 96%
    04:00 +21°C° 0 mm 1 mps 703 mmHg 96%
    05:00 +21°C° 0 mm 1 mps 703 mmHg 96%
    06:00 +22°C° 0 mm 1 mps 704 mmHg 95%
    07:00 +22°C° 0 mm 1 mps 704 mmHg 95%
    08:00 +23°C° 0 mm 1 mps 705 mmHg 88%
    09:00 +24°C° 0 mm 1 mps 705 mmHg 82%
    10:00 +26°C° 0 mm 1 mps 706 mmHg 76%
    11:00 +28°C° 0 mm 1 mps 705 mmHg 68%
    12:00 +30°C° 0 mm 1 mps 705 mmHg 60%
    13:00 +32°C° 0 mm 1 mps 704 mmHg 51%
    14:00 +31°C° 0.1 mm 1 mps 703 mmHg 52%
    15:00 +31°C° 0.1 mm 1 mps 703 mmHg 53%
    16:00 +30°C° 0.1 mm 1 mps 702 mmHg 53%
    17:00 +28°C° 0.1 mm 1 mps 702 mmHg 62%
    18:00 +26°C° 0.1 mm 1 mps 702 mmHg 71%
    19:00 +24°C° 0.1 mm 1 mps 703 mmHg 80%
    20:00 +24°C° 0 mm 1 mps 703 mmHg 84%
    21:00 +23°C° 0 mm 1 mps 703 mmHg 88%
    22:00 +23°C° 0 mm 1 mps 704 mmHg 92%
    23:00 +22°C° 0 mm 1 mps 703 mmHg 93%

    23 December, Sunday

    Time Temperature Precipitation Wind Pressure Humidity
    00:00 +22°C° 0 mm 1 mps 703 mmHg 94%
    01:00 +22°C° 0 mm 1 mps 703 mmHg 95%
    02:00 +22°C° 0 mm 1 mps 702 mmHg 96%
    03:00 +22°C° 0 mm 1 mps 702 mmHg 96%
    04:00 +21°C° 0 mm 1 mps 702 mmHg 97%
    05:00 +21°C° 0 mm 1 mps 703 mmHg 96%
    06:00 +22°C° 0 mm 1 mps 703 mmHg 95%
    07:00 +22°C° 0 mm 1 mps 703 mmHg 95%
    08:00 +24°C° 0 mm 1 mps 704 mmHg 83%
    09:00 +27°C° 0 mm 1 mps 705 mmHg 72%
    10:00 +29°C° 0 mm 1 mps 705 mmHg 60%
    11:00 +30°C° 0.1 mm 1 mps 705 mmHg 56%
    12:00 +31°C° 0.1 mm 1 mps 704 mmHg 53%
    13:00 +32°C° 0.1 mm 1 mps 703 mmHg 49%
    14:00 +31°C° 0.2 mm 1 mps 703 mmHg 52%
    15:00 +30°C° 0.2 mm 1 mps 702 mmHg 55%
    16:00 +29°C° 0.2 mm 1 mps 702 mmHg 58%
    17:00 +28°C° 0.4 mm 1 mps 702 mmHg 67%
    18:00 +26°C° 0.4 mm 1 mps 702 mmHg 76%
    19:00 +24°C° 0.4 mm 1 mps 702 mmHg 85%
    20:00 +24°C° 0 mm 1 mps 703 mmHg 88%
    21:00 +23°C° 0 mm 1 mps 703 mmHg 91%
    22:00 +23°C° 0 mm 1 mps 704 mmHg 93%
    23:00 +22°C° 0 mm 1 mps 703 mmHg 94%

    24 December, Monday

    Time Temperature Precipitation Wind Pressure Humidity
    00:00 +22°C° 0 mm 1 mps 703 mmHg 95%
    01:00 +22°C° 0 mm 1 mps 703 mmHg 95%
    02:00 +22°C° 0.1 mm 1 mps 703 mmHg 96%
    03:00 +22°C° 0.1 mm 1 mps 702 mmHg 96%
    04:00 +22°C° 0.1 mm 1 mps 702 mmHg 96%
    05:00 +22°C° 0 mm 1 mps 703 mmHg 96%
    06:00 +22°C° 0 mm 1 mps 703 mmHg 96%
    07:00 +22°C° 0 mm 1 mps 703 mmHg 95%
    08:00 +24°C° 0 mm 1 mps 704 mmHg 86%
    09:00 +26°C° 0 mm 1 mps 704 mmHg 77%
    10:00 +28°C° 0 mm 1 mps 705 mmHg 67%
    11:00 +29°C° 0.2 mm 1 mps 704 mmHg 63%
    12:00 +30°C° 0.2 mm 1 mps 704 mmHg 58%
    13:00 +31°C° 0.2 mm 1 mps 703 mmHg 54%
    14:00 +30°C° 0.6 mm 1 mps 703 mmHg 57%
    15:00 +29°C° 0.6 mm 1 mps 702 mmHg 61%
    16:00 +28°C° 0.6 mm 1 mps 702 mmHg 65%
    17:00 +27°C° 0.2 mm 1 mps 702 mmHg 73%
    18:00 +25°C° 0.2 mm 1 mps 702 mmHg 80%
    19:00 +24°C° 0.2 mm 1 mps 702 mmHg 87%
    20:00 +23°C° 0 mm 1 mps 703 mmHg 89%
    21:00 +23°C° 0 mm 1 mps 703 mmHg 91%
    22:00 +23°C° 0 mm 1 mps 704 mmHg 93%
    23:00 +22°C° 0 mm 1 mps 704 mmHg 94%
    Show more